Location: Thessaloniki
(40.6330°N, 22.9330°E)
Time: 11:42:06
(UTC+03:00)

ISS - Visible Passes

Search period start: 23 May 2017 00:00
Search period end: 02 June 2017 00:00
Orbit: 402 x 409 km, 51.6° (Epoch: 23 May)

Date Brightness Start Highest point End Pass type
(mag) Time Alt. Az. Time Alt. Az. Time Alt. Az.
23 May -0.9 00:42:42 18° N 00:42:42 18° N 00:44:10 10° NNE visible
23 May -0.4 02:17:37 10° NNW 02:19:03 12° N 02:20:28 10° NNE visible
23 May -1.0 03:54:01 10° NNW 03:56:31 20° NNE 03:59:01 10° ENE visible
23 May -3.9 05:30:04 10° NW 05:33:20 80° SW 05:36:36 10° SE visible
23 May -3.3 22:09:48 10° SSW 22:12:51 36° SE 22:15:55 10° ENE visible
23 May -1.8 23:46:27 10° W 23:49:23 29° NNW 23:52:19 10° NE visible
24 May -0.4 01:25:05 10° NW 01:26:41 13° N 01:28:17 10° NNE visible
24 May -0.6 03:02:10 10° NNW 03:04:15 15° NNE 03:06:18 10° NE visible
24 May -3.0 04:38:04 10° NW 04:41:19 54° NNE 04:44:30 10° ESE visible
24 May -2.4 21:18:33 10° S 21:20:58 19° SE 21:23:23 10° E visible
24 May -2.8 22:54:02 10° WSW 22:57:14 47° NNW 23:00:27 10° NE visible
25 May -0.6 00:32:22 10° NW 00:34:21 15° NNW 00:36:20 10° NNE visible
25 May -0.4 02:10:14 10° NNW 02:11:54 13° N 02:13:35 10° NE visible
25 May -1.9 03:46:09 10° NW 03:49:10 32° NNE 03:52:10 10° E visible
25 May -3.0 05:22:42 10° WNW 05:25:38 31° SW 05:28:33 10° SSE visible
25 May -3.8 22:01:51 10° SW 22:05:09 87° NNW 22:08:28 10° NE visible
25 May -0.9 23:39:37 10° WNW 23:42:02 19° NNW 23:44:27 10° NNE visible
26 May -0.3 01:18:05 10° NNW 01:19:32 12° N 01:20:58 10° NNE visible
26 May -1.2 02:54:17 10° NNW 02:56:57 22° NNE 02:59:36 10° ENE visible
26 May -3.9 04:30:26 10° WNW 04:33:41 62° SW 04:36:54 10° SE visible
26 May -1.4 22:46:56 10° W 22:49:45 25° NNW 22:52:35 10° NE visible
27 May -0.4 00:25:37 10° NNW 00:27:08 12° N 00:28:39 10° NNE visible
27 May -0.8 02:02:25 10° NNW 02:04:39 17° NNE 02:06:54 10° ENE visible
27 May -3.6 03:38:21 10° NW 03:41:38 68° NE 03:44:53 10° ESE visible
27 May -2.0 05:16:11 10° W 05:17:43 13° SW 05:19:15 10° SSW visible
27 May -2.2 21:54:26 10° W 21:57:33 39° NNW 22:00:41 10° NE visible
27 May -0.5 23:32:54 10° NW 23:34:44 14° N 23:36:34 10° NNE visible
28 May -0.5 01:10:29 10° NNW 01:12:18 14° N 01:14:07 10° NE visible
28 May -1.3 02:46:23 10° NW 02:47:20 17° NNW 02:47:20 17° NNW visible
28 May -0.7 22:40:06 10° WNW 22:42:22 17° NNW 22:44:38 10° NNE visible
29 May -0.5 00:18:23 10° NNW 00:19:53 12° N 00:21:24 10° NNE visible
29 May -1.1 01:54:27 10° NW 01:55:53 19° NNW 01:55:53 19° NNW visible
29 May -1.1 21:47:21 10° WNW 21:50:03 22° NNW 21:52:43 10° NNE visible
29 May -0.5 23:26:00 10° NNW 23:27:27 12° N 23:28:55 10° NNE visible
30 May -1.1 01:02:32 10° NNW 01:04:57 18° NNE 01:04:58 18° NNE visible
30 May -0.7 22:33:19 10° NW 22:35:01 13° N 22:36:43 10° NNE visible
31 May -0.8 00:10:36 10° NNW 00:12:34 15° NNE 00:14:14 11° NE visible
31 May -0.8 01:46:29 10° NW 01:46:51 12° NW 01:46:51 12° NW visible
31 May -0.8 21:40:30 10° NW 21:42:36 16° NNW 21:44:42 10° NNE visible
31 May -0.7 23:18:32 10° NNW 23:20:08 13° N 23:21:45 10° NE visible
01 Jun -1.3 00:54:30 10° NW 00:56:12 22° NNW 00:56:12 22° NNW visible
01 Jun -0.7 22:26:13 10° NNW 22:27:40 12° N 22:29:07 10° NNE visible
